Simultaneous Nadir Overpasses (SNOs) Predictions

Prediction of SNOs between METOP-B and NOAA-19 Satellite Orbit:

Table of predicted SNOs for the next 14.0 days since TLE Epoch: 1/14/2023
Index Date (METOP-B) Time (METOP-B) Lat,Lon (METOP-B) SZA (METOP-B ) Date (NOAA-19) Time (NOAA-19) Lat,Lon (NOAA-19) SZA (NOAA-19 ) Distance(km) Time Diff (sec)
1 01/15/2023 10:21:17 80.93, 59.74 103.39 01/15/2023 10:20:10 80.92, 59.59 103.35 2.59 67
2 01/15/2023 11:11:58 -80.92,-133.01 76.63 01/15/2023 11:11:13 -80.92,-133.01 76.65 0.23 45
3 01/15/2023 12:02:39 80.92, 34.24 103.35 01/15/2023 12:02:09 80.92, 34.29 103.35 0.90 30
4 01/15/2023 12:53:20 -80.92,-158.50 76.67 01/15/2023 12:53:12 -80.92,-158.32 76.65 3.18 8
5 01/15/2023 13:44:00 80.93, 9.10 103.37 01/15/2023 13:44:08 80.92, 8.98 103.35 2.26 8
6 01/15/2023 14:34:41 -80.93, 176.36 76.65 01/15/2023 14:35:11 -80.92, 176.37 76.65 0.51 30
7 01/15/2023 15:25:22 80.92, -16.40 103.33 01/15/2023 15:26:07 80.92, -16.32 103.35 1.30 45
8 01/15/2023 16:16:03 -80.92, 150.87 76.69 01/15/2023 16:17:11 -80.92, 150.68 76.68 3.23 68
9 01/26/2023 19:10:42 -80.92, 107.26 79.19 01/26/2023 19:09:45 -80.92, 107.32 79.20 1.20 57
10 01/26/2023 20:01:22 80.93, -85.27 100.82 01/26/2023 20:00:43 80.92, -85.22 100.81 1.07 39
11 01/26/2023 20:52:03 -80.93, 82.11 79.18 01/26/2023 20:51:44 -80.92, 82.00 79.21 2.08 19
12 01/26/2023 21:42:44 80.92,-110.77 100.79 01/26/2023 21:42:43 80.92,-110.91 100.78 2.37 1
13 01/26/2023 22:33:25 -80.92, 56.60 79.22 01/26/2023 22:33:43 -80.92, 56.68 79.21 1.34 18
14 01/26/2023 23:24:05 80.93,-135.92 100.79 01/26/2023 23:24:41 80.92,-135.85 100.80 1.52 36
15 01/27/2023 00:14:46 -80.93, 31.46 79.22 01/27/2023 00:15:42 -80.92, 31.36 79.22 2.04 56



Historial Predications of SNOs between METOP-B and NOAA-19
